Cheboygan, MI

8:14 AM EDT on May 24, 2018 (GMT -0400)
Cheboygan

Weather History for KSLH - May, 2013

Change the Weather History Date:

Sunday, May 26, 2013

  Actual Average (KMCD) Record (KMCD)
Temperature  
Mean Temperature 49 °F -  
Max Temperature 65 °F 57 °F 80 °F (1986)
Min Temperature 33 °F 42 °F 33 °F (1992)
Degree Days  
Heating Degree Days 16    
Moisture  
Dew Point 33 °F    
Average Humidity 55    
Maximum Humidity 92    
Minimum Humidity 25    
Precipitation  
Precipitation 0.00 in - - ()
Sea Level Pressure  
Sea Level Pressure 30.32 in    
Wind  
Wind Speed 2 mph (NE)    
Max Wind Speed 8 mph    
Max Gust Speed -    
Visibility 10 miles    
Events      
Averages and records for this station are not official NWS values.
T = Trace of Precipitation, MM = Missing Value Source: NWS Daily Summary

Daily Weather History Graph

Daily Weather History Graph

Search for Another Location

Airport or City:

Astronomy

May. 26, 2013 Rise Set
Actual Time 5:56 AM EDT 9:14 PM EDT
Civil Twilight 5:19 AM EDT 9:51 PM EDT
Nautical Twilight 4:32 AM EDT 10:38 PM EDT
Astronomical Twilight 3:33 AM EDT 11:38 PM EDT
Moon 10:59 PM EDT (5/26) 7:25 AM EDT (5/26)
Length of Visible Light 16h 31m
Length of Day
15h 18m
Waning Gibbous, 97% of the Moon is Illuminated
May 26
Waning Gibbous
May 31
Last Quarter
Jun 8
New
Jun 16
First Quarter
Jun 23
Full

Hourly Weather History & Observations

Time (EDT) Temp. Windchill Dew Point Humidity Pressure Visibility Wind Dir Wind Speed Gust Speed Precip Events Conditions
12:15 AM 43.9 °F 42.3 °F 33.6 °F 67% 30.33 in 10.0 mi West 3.5 mph - N/A   Clear
12:35 AM 42.8 °F 40.1 °F 33.6 °F 70% 30.33 in 10.0 mi West 4.6 mph - N/A   Clear
12:55 AM 42.8 °F 41.1 °F 33.6 °F 70% 30.33 in 10.0 mi West 3.5 mph - N/A   Clear
1:15 AM 42.4 °F 40.7 °F 32.7 °F 68% 30.32 in 10.0 mi West 3.5 mph - N/A   Clear
1:35 AM 38.8 °F - 32.9 °F 79% 30.32 in 10.0 mi Calm Calm - N/A   Clear
1:55 AM 43.0 °F - 32.9 °F 68% 30.33 in 10.0 mi Calm Calm - N/A   Clear
2:15 AM 41.4 °F - 32.9 °F 72% 30.33 in 10.0 mi Calm Calm - N/A   Clear
2:35 AM 38.3 °F - 32.7 °F 80% 30.33 in 10.0 mi Calm Calm - N/A   Clear
2:55 AM 37.9 °F - 32.2 °F 80% 30.33 in 10.0 mi Calm Calm - N/A   Clear
3:15 AM 38.8 °F - 33.4 °F 81% 30.33 in 10.0 mi Calm Calm - N/A   Clear
3:35 AM 38.5 °F - 33.3 °F 81% 30.33 in 10.0 mi Calm Calm - N/A   Clear
3:56 AM 37.0 °F - 33.3 °F 86% 30.34 in 10.0 mi Calm Calm - N/A   Clear
4:15 AM 35.8 °F - 32.2 °F 87% 30.33 in 10.0 mi Calm Calm - N/A   Clear
4:35 AM 35.2 °F - 32.0 °F 88% 30.33 in 10.0 mi Calm Calm - N/A   Clear
4:55 AM 34.9 °F 32.0 °F 32.4 °F 91% 30.33 in 10.0 mi WSW 3.5 mph - N/A   Clear
5:15 AM 35.6 °F 32.8 °F 32.5 °F 89% 30.33 in 10.0 mi SW 3.5 mph - N/A   Clear
5:35 AM 33.6 °F - 31.6 °F 92% 30.34 in 10.0 mi Calm Calm - N/A   Clear
5:55 AM 33.8 °F - 31.8 °F 92% 30.35 in 10.0 mi Calm Calm - N/A   Clear
6:15 AM 34.0 °F 31.0 °F 32.0 °F 92% 30.35 in 10.0 mi SW 3.5 mph - N/A   Clear
6:35 AM 34.9 °F - 32.4 °F 91% 30.36 in 10.0 mi Calm Calm - N/A   Clear
6:55 AM 36.5 °F - 33.8 °F 90% 30.37 in 10.0 mi Calm Calm - N/A   Clear
7:15 AM 39.6 °F - 36.1 °F 88% 30.37 in 10.0 mi Calm Calm - N/A   Clear
7:35 AM 44.4 °F - 39.0 °F 81% 30.37 in 10.0 mi Calm Calm - N/A   Clear
7:55 AM 46.4 °F - 38.3 °F 73% 30.36 in 10.0 mi Calm Calm - N/A   Clear
8:15 AM 48.4 °F - 38.5 °F 69% 30.36 in 10.0 mi East 3.5 mph - N/A   Clear
8:35 AM 50.7 °F - 37.6 °F 61% 30.36 in 10.0 mi East 4.6 mph - N/A   Clear
8:55 AM 52.3 °F - 37.0 °F 56% 30.38 in 10.0 mi Calm Calm - N/A   Clear
9:15 AM 54.0 °F - 35.8 °F 50% 30.38 in 10.0 mi East 3.5 mph - N/A   Clear
9:35 AM 55.0 °F - 36.9 °F 50% 30.38 in 10.0 mi NE 4.6 mph - N/A   Clear
9:55 AM 53.8 °F - 36.7 °F 52% 30.38 in 10.0 mi NE 5.8 mph - N/A   Clear
10:15 AM 54.9 °F - 35.4 °F 48% 30.38 in 10.0 mi NE 6.9 mph - N/A   Clear
10:36 AM 55.6 °F - 35.6 °F 47% 30.38 in 10.0 mi NE 5.8 mph - N/A   Clear
10:55 AM 55.4 °F - 33.8 °F 44% 30.37 in 10.0 mi NE 6.9 mph - N/A   Clear
11:15 AM 56.1 °F - 33.6 °F 43% 30.36 in 10.0 mi NE 6.9 mph - N/A   Clear
11:35 AM 56.8 °F - 34.3 °F 43% 30.36 in 10.0 mi NE 8.1 mph - N/A   Clear
11:55 AM 56.5 °F - 35.4 °F 45% 30.37 in 10.0 mi NE 8.1 mph - N/A   Clear
12:15 PM 57.7 °F - 34.2 °F 41% 30.37 in 10.0 mi NE 6.9 mph - N/A   Clear
12:35 PM 59.4 °F - 32.2 °F 36% 30.36 in 10.0 mi NE 5.8 mph - N/A   Clear
12:55 PM 60.1 °F - 29.7 °F 32% 30.35 in 10.0 mi ENE 6.9 mph - N/A   Clear
1:15 PM 60.1 °F - 26.1 °F 27% 30.35 in 10.0 mi Calm Calm - N/A   Clear
1:35 PM 61.2 °F - 26.2 °F 26% 30.35 in 10.0 mi East 6.9 mph - N/A   Clear
1:55 PM 61.5 °F - 26.2 °F 26% 30.35 in 10.0 mi Calm Calm - N/A   Clear
2:15 PM 61.2 °F - 27.9 °F 28% 30.34 in 10.0 mi Calm Calm - N/A   Clear
2:35 PM 61.5 °F - 27.9 °F 28% 30.34 in 10.0 mi Calm Calm - N/A   Clear
2:55 PM 61.9 °F - 26.6 °F 26% 30.33 in 10.0 mi NE 3.5 mph - N/A   Clear
3:15 PM 63.1 °F - 28.2 °F 27% 30.32 in 10.0 mi ENE 3.5 mph - N/A   Clear
3:35 PM 63.7 °F - 28.0 °F 26% 30.31 in 10.0 mi NE 4.6 mph - N/A   Clear
3:55 PM 64.6 °F - 29.7 °F 27% 30.31 in 10.0 mi East 5.8 mph - N/A   Clear
4:15 PM 64.6 °F - 28.8 °F 26% 30.30 in 10.0 mi NE 4.6 mph - N/A   Clear
4:35 PM 64.8 °F - 28.9 °F 26% 30.29 in 10.0 mi NNE 4.6 mph - N/A   Clear
4:55 PM 64.8 °F - 29.1 °F 26% 30.29 in 10.0 mi East 4.6 mph - N/A   Clear
5:15 PM 65.5 °F - 30.9 °F 27% 30.29 in 10.0 mi Calm Calm - N/A   Clear
5:35 PM 64.9 °F - 28.9 °F 26% 30.28 in 10.0 mi Calm Calm - N/A   Clear
5:55 PM 64.6 °F - 28.0 °F 25% 30.28 in 10.0 mi ENE 3.5 mph - N/A   Clear
6:15 PM 64.9 °F - 28.8 °F 26% 30.27 in 10.0 mi NE 3.5 mph - N/A   Clear
6:35 PM 64.4 °F - 27.5 °F 25% 30.26 in 10.0 mi ENE 4.6 mph - N/A   Clear
6:55 PM 64.0 °F - 28.6 °F 26% 30.26 in 10.0 mi Calm Calm - N/A   Clear
7:15 PM 63.7 °F - 27.5 °F 25% 30.26 in 10.0 mi Calm Calm - N/A   Clear
7:35 PM 63.5 °F - 27.5 °F 26% 30.26 in 10.0 mi Calm Calm - N/A   Clear
7:55 PM 63.5 °F - 29.3 °F 28% 30.25 in 10.0 mi Calm Calm - N/A   Clear
8:16 PM 63.0 °F - 28.6 °F 27% 30.24 in 10.0 mi Calm Calm - N/A   Clear
8:35 PM 61.5 °F - 33.3 °F 35% 30.24 in 10.0 mi Calm Calm - N/A   Clear
8:55 PM 57.9 °F - 36.7 °F 45% 30.24 in 10.0 mi Calm Calm - N/A   Clear
9:15 PM 55.8 °F - 34.7 °F 45% 30.24 in 10.0 mi Calm Calm - N/A   Clear
9:35 PM 53.1 °F - 36.0 °F 52% 30.24 in 10.0 mi Calm Calm - N/A   Clear
9:55 PM 49.1 °F - 36.9 °F 63% 30.24 in 10.0 mi Calm Calm - N/A   Clear
10:15 PM 48.2 °F - 37.0 °F 65% 30.25 in 10.0 mi Calm Calm - N/A   Clear
10:35 PM 46.4 °F - 37.9 °F 72% 30.24 in 10.0 mi Calm Calm - N/A   Clear
10:56 PM 44.2 °F - 38.3 °F 80% 30.25 in 10.0 mi Calm Calm - N/A   Clear
11:15 PM 43.2 °F - 37.8 °F 81% 30.25 in 10.0 mi Calm Calm - N/A   Clear
11:35 PM 43.3 °F - 38.3 °F 82% 30.25 in 10.0 mi Calm Calm - N/A   Clear
11:55 PM 43.3 °F 41.7 °F 37.6 °F 80% 30.26 in 10.0 mi SSW 3.5 mph - N/A   Clear